Regional Weather Roundup
Issued by NWS Little Rock, AR

Home | Current Version | Previous Version | Graphics & Text | Print | Product List | Glossary On
Versions: 1 2 3 4 5 6 7 8 9 10 11 12 13 14 15 16 17 18 19 20 21 22 23 24 25 26 27 28 29 30 31 32 33 34 35 36 37 38 39 40 41 42 43 44 45 46 47 48 49 50
000
ASUS44 KLZK 202005
RWRLZK

WEATHER ROUNDUP FOR ARKANSAS
NATIONAL WEATHER SERVICE LITTLE ROCK AR
200 PM CST SAT DEC 20 2014

NOTE: "FAIR" INDICATES FEW OR NO CLOUDS BELOW 12,000 FEET WITH NO
SIGNIFICANT WEATHER AND/OR OBSTRUCTIONS TO VISIBILITY.

ARZ001-003-010-029-202100-
NORTHWEST ARKANSAS

CITY           SKY/WX    TMP DP  RH WIND       PRES   REMARKS
FAYETTEVILLE   CLOUDY    42  37  82 SW3       30.19F
FORT SMITH     CLOUDY    47  39  74 NE6       30.21F HAZE
HARRISON       CLOUDY    43  40  89 SE7       30.18F
BENTONVILLE    CLOUDY    45  36  70 SW6       30.19F
ROGERS         CLOUDY    43  37  79 SW6       30.19F
SILOAM SPGS    CLOUDY    43  34  70 SW3       30.20F
HIGHFILL       CLOUDY    43  38  82 SW5       30.18F
SPRINGDALE     CLOUDY    43  37  81 SW5       30.20F
$$

ARZ004-005-016-202100-
NORTH CENTRAL ARKANSAS

CITY           SKY/WX    TMP DP  RH WIND       PRES   REMARKS
BATESVILLE     CLOUDY    45  36  70 S3        30.24S
FLIPPIN        CLOUDY    43  36  75 E3        30.20F
MTN HOME       CLOUDY    42  39  89 S3        30.20F FOG
$$

ARZ040-041-202100-
WEST CENTRAL ARKANSAS

CITY           SKY/WX    TMP DP  RH WIND       PRES   REMARKS
MENA           CLOUDY    50  43  76 CALM      30.18F
MOUNT IDA      CLOUDY    47  41  80 CALM      30.17F
$$

ARZ009-017-025-026-028-202100-
NORTHEAST ARKANSAS

CITY           SKY/WX    TMP DP  RH WIND       PRES   REMARKS
CORNING        FAIR      45  34  65 CALM      30.24F
JONESBORO      CLOUDY    44  36  73 CALM      30.24F
NEWPORT        CLOUDY    44  36  73 CALM      30.26S
WALNUT RIDGE   CLOUDY    45  32  61 SE3       30.23F
BLYTHEVILLE    CLOUDY    47  34  60 NE6       30.24F
$$

ARZ022-023-033-042-044-202100-
CENTRAL ARKANSAS

CITY           SKY/WX    TMP DP  RH WIND       PRES   REMARKS
LITTLE ROCK    CLOUDY    49  35  58 E5        30.22F
N LITTLE ROCK  CLOUDY    47  38  73 NE2       30.22F
JACKSONVILLE   CLOUDY    47  36  66 N2        30.22F
SEARCY         CLOUDY    45  37  73 N3        30.25F
HOT SPRINGS    CLOUDY    50  39  66 CALM      30.19F
RUSSELLVILLE   CLOUDY    47  38  71 S3        30.21F
CLINTON        CLOUDY    46  37  71 CALM      30.23F HAZE
$$

ARZ036-202100-
EAST ARKANSAS

CITY           SKY/WX    TMP DP  RH WIND       PRES   REMARKS
WEST MEMPHIS   CLOUDY    47  34  60 NE5       30.22F
$$

ARZ050-053-066-070-073-202100-
SOUTHWEST ARKANSAS

CITY           SKY/WX    TMP DP  RH WIND       PRES   REMARKS
ARKADELPHIA    CLOUDY    49  42  76 N5        30.21F
CAMDEN         SUNNY     57  37  47 MISG      30.20F
TEXARKANA      CLOUDY    50  42  74 NE6       30.20F
EL DORADO      SUNNY     53  40  61 E3        30.19F
DE QUEEN       CLOUDY    49  42  77 CALM      30.19F
$$

ARZ056-057-069-202100-
SOUTHEAST ARKANSAS

CITY           SKY/WX    TMP DP  RH WIND       PRES   REMARKS
PINE BLUFF     SUNNY     50  36  58 VRB6      30.21F
STUTTGART      CLOUDY    46  36  66 NE6       30.24S
MONTICELLO     SUNNY     53  38  56 E7        30.19F

$$




USA.gov is the U.S. government's official web portal to all federal, state and local government web resources and services.